GFSFLT1_con_mlcape_273.txt.gz
CAPE
504 417 1008 1511 1873 1946 2078 2154 2537 2645 2613 2640 2862 2627 2357 2408 2265 1918 1410 912 229 7 0 33 0 34 59 59 49 55 177 360 351
293 340 522 1303 1841 1922 1959 2026 2636 2773 2681 2544 2351 2471 2427 2348 1860 1515 764 99 0 0 32 15 135 159 111 70 21 38 14 216 306
571 459 503 1021 1365 1908 1932 2096 2506 2568 2433 2341 2621 2448 2209 1737 1829 919 243 11 0 18 18 55 218 120 2 0 0 0 0 87 0
628 503 706 1243 1528 1894 2145 2381 2535 2592 2502 2504 2721 2400 1876 1842 1688 217 99 0 12 0 72 214 129 52 0 0 0 0 10 0 0
628 384 721 1511 1798 2027 2391 2440 2590 2534 2520 2501 2554 1806 1758 1210 867 100 18 58 279 216 568 205 70 40 9 0 0 0 0 0 0
454 451 1035 1389 1898 2183 2384 2459 2470 2452 2757 2409 1760 1367 794 435 91 351 582 738 905 738 616 557 149 59 11 7 3 0 0 0 0
371 12 205 1634 1820 2003 2178 2442 2581 2323 1903 1399 1180 653 321 189 385 877 1102 1017 937 624 656 581 360 5 49 0 27 0 0 0 0
197 101 200 1882 1965 2302 2576 2545 2230 1746 1760 1158 588 579 415 426 535 947 1081 989 636 645 634 842 509 114 0 0 1 12 0 0 0
1401 1996 2062 2010 2252 2444 2419 2326 2183 1887 1892 1021 894 651 513 869 1029 797 1013 708 648 816 522 252 88 0 0 0 0 0 0 0 0
2171 2085 2303 2434 2424 2418 2344 2320 2346 2185 1876 1156 919 922 940 891 819 770 593 712 584 373 161 68 0 0 0 0 0 0 0 0 0
2175 2290 2548 2575 2412 2470 2547 2582 2397 1990 1616 1264 930 720 736 563 327 249 364 555 174 6 0 0 0 0 0 0 0 0 0 0 0
1299 2756 2679 2551 2394 2583 2156 1716 1429 891 583 459 828 579 275 17 0 0 115 166 29 0 0 0 0 0 0 0 0 0 0 0 0
2950 2772 2372 2319 1970 1784 1315 932 549 518 240 21 8 97 0 64 33 24 0 0 0 0 0 0 0 0 0 0 0 0 0 0 0
2396 2074 2052 1932 1820 1550 1242 502 383 297 127 0 0 349 142 0 0 0 0 0 0 0 0 0 0 0 0 0 0 0 0 0 0
1762 1816 1874 1703 1580 1292 969 446 291 190 124 189 50 0 0 0 0 0 0 0 0 0 0 0 0 0 0 0 0 0 0 0 0
1486 1522 1393 992 873 753 513 346 243 64 1 0 0 0 0 0 0 0 0 0 0 0 0 0 0 0 0 0 0 0 0 0 0
1259 1048 879 614 477 279 66 0 0 0 0 0 0 0 0 0 0 0 0 0 0 0 0 0 0 0 0 0 0 0 0 0 0
1194 958 676 375 172 9 0 0 0 0 0 0 0 0 0 0 0 0 0 0 0 0 0 0 0 0 0 0 0 0 0 0 0
1055 819 535 346 82 0 0 0 0 0 0 0 0 0 0 0 0 0 0 0 0 0 0 0 0 0 0 0 0 0 0 0 0
855 697 435 201 2 0 0 0 0 0 0 0 0 0 0 0 0 0 0 0 0 0 0 0 0 0 0 0 0 0 0 0 0

GFSFLT1_con_mlcape_276.txt.gz
CAPE
372 319 170 664 1079 1929 2213 2465 2668 2863 2786 2637 2387 2151 2229 2209 2079 1550 1025 231 0 0 0 31 68 69 1 0 0 0 30 0 0
352 576 419 691 1584 1928 2165 2250 2318 2395 2456 2407 2278 2497 2372 2190 1607 1056 104 0 0 0 0 91 220 33 0 0 0 0 0 0 0
656 785 891 1607 1699 1798 2128 2264 2439 2529 2268 2519 2476 2346 2178 1852 1281 264 3 2 9 5 22 152 93 24 0 0 0 0 0 0 0
553 1393 1664 1762 1886 1932 2152 2479 2620 2608 2350 2242 2475 2360 1988 1662 807 60 33 2 27 27 263 140 50 32 3 0 0 0 0 0 0
531 788 1633 1708 1879 1926 2288 2434 2595 2456 2349 2543 2601 2131 1526 1326 346 0 17 8 70 426 304 170 51 36 20 14 0 0 0 0 0
417 737 1298 1633 1849 1983 2193 2364 2486 2526 2392 2727 2448 1702 1359 1005 116 36 205 694 649 521 432 388 192 24 24 0 0 0 0 0 0
710 1159 1170 1610 2011 2159 2283 2492 2544 2516 2455 2557 2082 1430 580 63 688 768 764 539 514 450 541 502 222 8 0 0 4 0 0 0 0
395 83 436 1694 2008 2225 2311 2402 2456 2382 2377 2276 1391 480 131 307 882 647 465 465 454 418 250 72 2 0 0 0 0 0 0 0 0
433 181 329 1430 1691 1534 2386 2168 2116 2111 1720 1074 675 240 389 682 638 444 417 451 249 166 37 0 0 0 0 0 0 0 0 0 0
479 335 22 847 126 111 2264 1726 1622 1221 819 482 360 568 824 800 485 265 269 260 117 49 0 0 0 0 0 0 0 0 0 0 0
576 71 116 1233 706 2059 1982 1566 1293 875 492 561 496 535 479 443 296 147 57 15 2 0 0 0 0 0 0 0 0 0 0 0 0
1308 1685 1934 2177 2344 2201 1916 1423 700 167 544 541 366 208 210 17 0 0 0 0 0 0 0 0 0 0 0 0 0 0 0 0 0
1096 1945 2251 2231 2361 2168 1769 603 340 451 643 460 250 8 0 0 0 0 0 0 0 0 0 0 0 0 0 0 0 0 0 0 0
2087 2096 1977 1775 2028 2000 994 219 236 354 218 93 54 82 0 0 0 0 0 0 0 0 0 0 0 0 0 0 0 0 0 0 0
1862 1774 1494 1270 1223 1068 645 226 215 97 9 240 35 0 0 0 0 0 0 0 0 0 0 0 0 0 0 0 0 0 0 0 0
1481 1414 1222 856 676 506 373 303 141 61 63 1 0 0 0 0 0 0 0 0 0 0 0 0 0 0 0 0 0 0 0 0 0
1116 988 917 692 474 286 159 21 7 4 0 0 0 0 0 0 0 0 0 0 0 0 0 0 0 0 0 0 0 0 0 0 0
824 704 469 380 280 112 0 0 0 0 0 0 0 0 0 0 0 0 0 0 0 0 0 0 0 0 0 0 0 0 0 0 0
665 493 276 114 9 0 0 0 0 0 0 0 0 0 0 0 0 0 0 0 0 0 0 0 0 0 0 0 0 0 0 0 0
557 353 87 0 0 0 0 0 0 0 0 0 0 0 0 0 0 0 0 0 0 0 0 0 0 0 0 0 0 0 0 0 0

GFSFLT1_con_mlcape_279.txt.gz
CAPE
335 161 24 84 639 1066 1305 1296 1270 1328 1615 1663 1637 2071 1926 1653 1670 1692 950 429 16 0 0 17 40 0 0 0 0 0 0 0 0
285 242 140 149 586 1315 1579 1794 1838 1962 2174 2152 2405 2213 2011 1965 1808 1285 480 4 0 0 5 110 67 0 0 0 0 0 0 0 0
264 396 487 353 884 1414 1831 2106 2251 2485 2548 2460 2409 2112 2198 2007 1388 461 0 0 0 18 97 168 41 0 0 0 0 0 0 0 0
290 599 695 643 1074 1488 1795 2160 2395 2451 2407 2309 2137 2294 2082 1672 1016 70 0 0 0 41 211 136 64 31 0 0 0 0 0 0 0
858 804 1012 1186 1368 1637 1871 2129 2183 2081 2110 1980 2223 2095 1861 1591 515 28 0 0 11 359 296 193 23 17 7 0 0 0 0 0 0
686 342 145 8 1400 1613 1778 1945 1954 2023 1949 2093 2100 2022 1726 1317 191 0 7 79 516 509 419 347 78 0 0 0 0 0 0 0 0
650 340 869 85 1207 1529 1752 1889 1978 2102 1976 1921 2097 1837 1200 727 126 197 507 580 495 393 384 163 0 0 0 0 0 0 0 0 0
592 166 820 1162 1364 1488 1679 1882 1974 2021 1926 2085 2011 1327 655 587 497 640 477 446 386 238 107 6 0 0 0 0 0 0 0 0 0
481 388 835 1230 1423 1509 1667 1878 1983 1134 675 513 101 410 212 725 645 484 480 411 187 69 0 0 0 0 0 0 0 0 0 0 0
514 438 867 1246 1497 1636 1799 1772 1170 780 516 390 425 75 437 629 444 468 329 112 7 0 0 0 0 0 0 0 0 0 0 0 0
388 434 201 333 786 1736 1758 1223 1109 735 84 178 239 215 299 294 205 247 72 0 0 0 0 0 0 0 0 0 0 0 0 0 0
550 612 143 169 589 1251 1312 1352 893 303 54 79 287 342 264 276 278 75 0 0 0 0 0 0 0 0 0 0 0 0 0 0 0
735 619 532 456 725 1128 1312 1076 556 160 271 373 243 13 130 17 0 0 0 0 0 0 0 0 0 0 0 0 0 0 0 0 0
1689 1645 1622 1707 1516 1097 992 406 237 361 472 323 22 0 0 0 0 0 0 0 0 0 0 0 0 0 0 0 0 0 0 0 0
1513 1730 1734 1554 1657 1085 217 140 408 497 350 26 0 0 0 0 0 0 0 0 0 0 0 0 0 0 0 0 0 0 0 0 0
1407 1653 1490 1043 1120 841 296 47 189 367 138 1 0 0 0 0 0 0 0 0 0 0 0 0 0 0 0 0 0 0 0 0 0
1165 1287 1053 674 593 543 245 39 13 0 0 0 0 0 0 0 0 0 0 0 0 0 0 0 0 0 0 0 0 0 0 0 0
801 800 671 614 412 179 40 0 0 0 0 0 0 0 0 0 0 0 0 0 0 0 0 0 0 0 0 0 0 0 0 0 0
751 538 307 201 53 12 0 0 0 0 0 0 0 0 0 0 0 0 0 0 0 0 0 0 0 0 0 0 0 0 0 0 0
508 320 188 106 45 0 0 0 0 0 0 0 0 0 0 0 0 0 0 0 0 0 0 0 0 0 0 0 0 0 0 0 0

GFSFLT1_con_mlcape_285.txt.gz
CAPE
299 260 293 310 217 205 364 487 395 345 366 421 476 621 695 1783 1943 1816 1405 852 379 66 14 56 43 0 0 7 65 0 0 0 0
99 280 265 344 284 319 430 539 564 491 461 542 716 881 771 1192 1816 1724 1002 434 102 27 133 292 138 52 0 38 0 0 0 0 0
2 198 284 272 294 414 556 674 749 717 688 691 1037 1370 1035 1382 2040 1674 995 402 31 74 287 569 243 157 92 112 49 0 0 0 0
41 117 271 174 257 458 735 963 969 1017 904 968 1328 1373 1550 2091 2111 1644 905 303 27 274 494 549 412 267 287 209 115 0 0 0 0
178 142 204 267 186 298 757 1147 1524 1676 1428 1384 1659 1870 2283 2193 1630 1054 328 28 203 427 534 413 376 315 140 40 1 0 0 0 1
489 298 323 356 335 583 1018 2136 2370 2142 1864 1654 1490 1532 1684 1403 745 417 49 36 283 567 597 444 165 40 2 0 0 0 0 0 0
579 598 434 628 993 1372 2053 2421 1815 1142 680 590 694 732 607 534 385 121 20 266 620 753 420 38 0 0 0 0 0 0 0 0 0
511 769 649 948 1378 1923 2048 1707 1234 258 72 71 27 23 313 243 47 35 117 494 706 156 1 0 0 0 0 0 0 0 0 0 0
368 812 896 1078 1663 2117 1564 1554 678 112 4 11 0 2 122 292 26 98 271 358 73 0 0 0 0 0 0 0 0 0 0 0 0
481 811 858 597 774 2047 1875 1274 96 85 64 0 0 0 0 0 149 312 281 82 0 0 0 0 0 0 0 0 0 0 0 0 0
562 632 772 965 1313 1966 1729 1153 516 244 343 95 3 0 0 19 398 380 144 1 0 0 0 0 0 0 0 0 0 0 0 0 0
716 716 774 1142 1639 1799 1515 758 376 386 120 36 28 0 0 113 243 283 47 1 0 0 0 0 0 0 0 0 0 0 0 0 0
1025 603 625 1263 1471 1552 1444 1127 801 450 254 181 229 262 224 337 405 178 1 0 0 0 0 0 0 0 0 0 0 0 0 0 0
1306 822 1037 1321 1193 1338 1501 1110 464 0 6 174 431 701 392 361 164 2 0 0 0 0 0 0 0 0 0 0 0 0 0 0 0
1469 885 1300 1134 1220 1624 966 710 219 50 58 322 312 405 295 100 2 0 0 0 0 0 0 0 0 0 0 0 0 0 0 0 0
1487 1308 1125 1047 1502 1336 537 299 239 98 132 108 133 96 5 1 0 0 0 0 0 0 0 0 0 0 0 0 0 0 0 0 0
1277 1075 899 1018 1236 685 448 251 224 82 46 19 4 0 0 0 0 0 0 0 0 0 0 0 0 0 0 0 0 0 0 0 0
889 898 739 713 829 480 415 185 53 50 19 2 0 0 0 0 0 0 0 0 0 0 0 0 0 0 0 0 0 0 0 0 0
764 677 474 324 348 353 270 104 54 6 0 0 0 0 0 0 0 0 0 0 0 0 0 0 0 0 0 0 0 0 0 0 0
382 338 396 305 90 37 23 51 17 0 0 0 0 0 0 0 0 0 0 0 0 0 0 0 0 0 0 0 0 0 0 0 0

GFSFLT1_con_mlcape_291.txt.gz
CAPE
412 707 746 963 881 1099 1405 1371 1253 1317 2014 2450 2416 2369 2558 2645 2542 2271 1992 2029 1799 747 62 191 643 421 413 464 270 155 155 190 3
293 633 803 950 1041 1129 1361 1553 1506 1534 2148 2426 2288 2557 2852 2918 2731 2267 1974 2049 1861 393 122 822 745 517 476 349 281 179 146 211 119
252 623 770 910 1033 1153 1252 1575 1681 1691 2134 2408 2211 1914 2582 2855 2643 2587 2487 2362 1467 65 729 1334 1139 807 483 374 434 442 216 53 55
286 428 742 746 997 1177 1186 1362 1631 1771 2059 2193 1906 1773 2283 2739 2382 2437 2477 1974 744 737 1217 1412 1434 1220 951 559 420 315 133 27 27
380 360 631 752 1071 1253 1357 1508 1820 1877 1964 1957 1787 1902 2492 2572 2408 2573 2213 1706 670 1018 1437 1579 1497 1058 814 397 164 92 11 3 1
476 872 761 900 1194 1447 1602 1668 2100 2196 2048 1968 1834 2457 2389 2566 2541 2382 2054 1532 589 929 1493 1226 1091 862 578 243 27 0 0 0 1
537 1242 1069 1086 1460 1773 2013 2184 2430 2519 2317 2275 2564 2412 2615 2925 2731 2435 1762 1065 811 1448 1611 1317 780 521 238 6 0 0 0 0 0
630 1545 1317 1335 1643 1902 2489 2940 2948 2760 2769 2777 2718 2845 3133 2991 2762 2205 1379 732 1391 1493 1183 641 334 56 0 0 0 0 0 0 0
1058 1558 1527 1554 1646 2158 3378 3447 2917 2986 3177 2795 2944 3303 2723 2242 1746 1123 484 716 882 448 246 72 0 0 0 0 0 0 0 0 0
1170 1648 1848 2197 2462 3462 3078 2756 2750 2848 2538 2688 2392 1944 1736 1050 792 352 208 238 147 43 0 0 0 0 0 0 0 0 0 0 0
1122 1879 2214 2838 3572 2989 2587 2575 2599 2357 1599 910 839 1339 1186 1061 495 449 210 75 5 0 0 0 0 0 0 0 0 0 0 0 0
1225 2014 2787 3299 3282 2539 2452 2161 1936 1425 1272 855 1164 950 991 894 413 422 130 62 5 1 0 0 0 0 0 0 0 0 0 0 0
1714 2076 2477 3165 2779 2391 2440 1785 1505 1829 1367 972 962 1274 1023 912 789 371 252 157 63 4 0 0 0 0 0 0 0 0 0 0 0
1904 2077 2458 2365 2720 2581 2655 2400 1938 2201 1725 1076 884 914 1272 1060 558 464 329 55 3 1 0 0 0 0 0 0 0 0 0 0 0
2600 1934 2369 2470 2954 2684 2769 2341 2290 2406 1592 1384 1053 831 980 1074 909 616 108 1 2 0 0 0 0 0 0 0 0 0 0 0 0
2261 2116 2665 2900 2865 2826 2990 2667 2458 2127 1863 1492 1070 958 907 1036 496 165 79 8 2 0 0 0 0 0 0 0 0 0 0 0 0
2710 2759 2623 2708 2973 2738 2647 2498 1726 1698 1647 1681 1444 1362 950 548 469 120 76 7 0 0 0 0 0 0 0 0 0 0 0 0 0
2787 2563 2616 2833 3018 2876 2767 1982 1897 1777 1372 1213 1095 727 482 466 170 163 29 0 0 0 0 0 0 0 0 0 0 0 0 0 0
2150 2408 2734 3066 2540 2236 2024 1907 1566 1336 1160 1059 726 794 679 368 151 16 0 0 0 0 0 0 0 0 0 0 0 0 0 0 0
2553 2389 2428 2756 2559 1811 1664 1250 1424 1258 1347 1225 949 692 421 69 26 0 0 0 0 0 0 0 0 0 0 0 0 0 0 0 0